www.pogodaiklimat.ru
ПОГОДА в Лхоксёмаве
Время
(UTC), дата
00 17.10
03 17.10
06 17.10
09 17.10
12 17.10
15 17.10
18 17.10
21 17.10
00 18.10
03 18.10
06 18.10
09 18.10
12 18.10
15 18.10
18 18.10
21 18.10
00 19.10
03 19.10
06 19.10
09 19.10
12 19.10
15 19.10
18 19.10
21 19.10
00 20.10
03 20.10
06 20.10
09 20.10
12 20.10
15 20.10
18 20.10
21 20.10
00 21.10
03 21.10
06 21.10
09 21.10
12 21.10
15 21.10
18 21.10
21 21.10
00 22.10
03 22.10
06 22.10
09 22.10
12 22.10
15 22.10
18 22.10
21 22.10
00 23.10
03 23.10
06 23.10
09 23.10
12 23.10
15 23.10
18 23.10
Ветер
(напр.,м/с)
Видим. Явления Облачность Т
(С)
Тd
(С)
f
(%)
Тe
(С)
Тes
(С)
Комфортность P
(гПа)
Po
(гПа)
Тmin
(С)
Tmax
(С)
R
(мм)
R24
(мм)
S
(см)
ЮЗ 3 5000 м гроза без осадков 10/1 480 м
[Cb cap As op Ci sp]
+24.3 +23.3 94 +33 +33 очень
душно
1009.7 1006.3 +22.8 6
штиль 0 5000 м гроза без осадков 10/3 450 м
[Cb cap As op Ci fib]
+28.2 +23.8 77 +39 +45 очень
душно
1012.1 1008.8
ЮВ 2 5000 м в посл. час дождь {гроза} 9/3 480 м
[Cu med, cong As op Ci fib]
+26.8 +24.7 88 +38 +47 очень
душно
1010.1 1006.8 1
СЗ 3 6000 м 8/1 500 м
[Cu hum Ac As Ci sp]
+29.8 +24.6 74 +42 +46 опасность
перегрева
1007.0 1003.5
С 2 6000 м 10/3 480 м
[Cb cap Ac As Ci sp]
+27.6 +25.2 87 +40 +40 очень
душно
1009.0 1005.6 +30.0
штиль 0 6000 м 5/1 480 м
[Sc diur, vesp As op Ci fib]
+26.2 +25.0 93 +37 +37 очень
душно
1011.1 1007.7
штиль 0 6000 м 5/1 480 м
[Sc diur, vesp As op Ci fib]
+25.2 +24.5 96 +35 +35 очень
душно
1010.2 1006.9
штиль 0 5000 м гроза без осадков 6/3 450 м
[Cb cap As op Ci fib]
+24.4 +24.0 98 +34 +34 очень
душно
1008.9 1005.6
СВ 1 6000 м {гроза, дождь} 10/4 450 м
[Cb cap As op]
+24.4 +22.8 91 +32 +32 очень
душно
1010.5 1007.1 +24.2 0.4
штиль 0 8000 м слаб. дождь 10/4 450 м
[Cb cap As op]
+26.8 +24.3 86 +37 +39 очень
душно
1011.5 1008.1 0.0
С 2 8000 м {дождь} 9/4 450 м
[Cb cap As op Ci fib]
+29.2 +23.7 72 +40 +48 очень
душно
1009.2 1005.7 0.0
С 4 8000 м 9/3 450 м
[Cb cap Ac As Ci sp]
+28.4 +24.9 81 +41 +43 опасность
перегрева
1008.2 1004.7
СВ 1 6000 м зарница 9/4 450 м
[Cb cap As op Ci fib]
+27.4 +24.8 86 +39 +39 очень
душно
1009.4 1006.0 +31.0
ЮЗ 2 6000 м {дождь} 10/3 450 м
[Cb calv As op Ci sp]
+25.4 +24.6 95 +36 +36 очень
душно
1011.4 1007.9 8
Ю 1 7000 м зарница {дождь} 9/3 450 м
[Cb cap As op Ci sp]
+24.6 +24.2 98 +34 +34 очень
душно
1010.2 1006.8 0.3
ЮЗ 2 7000 м зарница 10/3 450 м
[Cb cap Ac As Ci sp]
+24.5 +24.1 98 +34 +34 очень
душно
1008.8 1005.3
ЮВ 1 6000 м 8/3 450 м
[Cb cap Ac As Ci sp]
+24.1 +23.7 98 +33 +33 очень
душно
1009.8 1006.3 +23.8 8
ЮВ 2 6000 м слаб. дождь 10/5 450 м
[Cb cap As op]
+25.2 +24.2 94 +35 +36 очень
душно
1012.1 1008.8 0.6
штиль 0 10 км слаб. дождь 9/4 450 м
[Cb cap As op Ci fib]
+25.9 +24.5 92 +36 +46 очень
душно
1010.0 1006.7 0.2
С 1 7000 м {дождь} 9/4 450 м
[Cb cap As op Ci fib]
+27.4 +24.9 86 +39 +42 очень
душно
1008.2 1004.7 0.0
штиль 0 5000 м мгла {дождь} 9/3 450 м
[Cu med, cong As op Ci fib]
+26.7 +24.9 90 +38 +38 очень
душно
1009.4 1005.9 +28.2 0.0
ЮВ 2 6000 м 9/3 480 м
[Cu med, cong As op Ci fib]
+25.2 +21 +21 комфорт 1010.3 1006.9
Ю 2 6000 м 8/4 450 м
[Cb cap As op Ci fib]
+24.6 +24.2 98 +34 +34 очень
душно
1009.7 1006.3
штиль 0 6000 м {гроза} 8/4 500 м
[Cb cap As op Ci fib]
+24.0 +23.6 98 +33 +33 очень
душно
1007.8 1004.4
штиль 0 7000 м 5/1 480 м
[Cu med, cong As op Ci fib]
+23.6 +22.9 96 +31 +31 очень
душно
1008.9 1005.6 +23.0 0.8
З 1 8000 м 5/1 480 м
[Cu med, cong As op Ci fib]
+28.4 +24.5 79 +40 +50 очень
душно
1011.3 1007.8
С 2 6000 м 9/5 450 м
[Cb cap As op Ci fib]
+30.2 +25.2 75 +44 +50 опасность
перегрева
1009.3 1005.8
В 3 4500 м гроза без осадков 10/5 450 м
[Cb cap As op Ci fib]
+28.6 +25.4 83 +42 +43 опасность
перегрева
1007.4 1004.0
штиль 0 5000 м мгла 10/3 480 м
[Cu med, cong As op Ci fib]
+26.0 +23.9 88 +36 +36 очень
душно
1008.7 1005.3 +30.6
ЮЗ 2 6000 м 10/4 480 м
[Cu med, cong As op Ci fib]
+24.0 +22.6 92 +31 +31 очень
душно
1010.7 1007.2
ЮЗ 2 6000 м 9/4 480 м
[Sc As op Ci fib]
+23.4 +22.1 92 +32 +32 очень
душно
1009.8 1006.4
ЮЗ 2 6000 м 9/4 480 м
[Sc As op Ci fib]
+23.2 +21.8 92 +31 +31 очень
душно
1007.9 1004.5
ЮЗ 2 6000 м 9/4 480 м
[Sc As trans Ci fib]
+23.9 +23.2 96 +32 +32 очень
душно
1009.6 1006.1 +22.9
штиль 0 6000 м 9/4 500 м
[Sc As op Ci fib]
+28.4 +24.3 78 +40 +46 очень
душно
1011.0 1007.7
СВ 2 5000 м 9/4 450 м
[Cb cap As op]
+28.4 +25.2 83 +41 +45 опасность
перегрева
1009.2 1005.8
С 2 5000 м мгла 10/4 450 м
[Cb cap As op Ci fib]
+29.6 +24.4 74 +42 +44 опасность
перегрева
1007.0 1003.5
штиль 0 5000 м мгла 10/4 480 м
[Cu med, cong As op Ci fib]
+27.5 +24.1 82 +38 +38 очень
душно
1009.0 1005.5 +30.4
штиль 0 5000 м мгла 10/4 480 м
[Cu med, cong As op Ci fib]
+25.3 +24.8 97 +36 +36 очень
душно
1010.3 1007.0
штиль 0 5000 м дымка 10/4 480 м
[Cu med, cong As op Ci fib]
+25.2 +24.2 94 +35 +35 очень
душно
1009.1 1005.8
ЮЗ 1 5000 м гроза без осадков 10/4 450 м
[Cb calv As op Ci fib]
+24.5 +23.5 94 +33 +33 очень
душно
1007.7 1004.3
штиль 0 4500 м гроза, ливневой дождь 10/4 450 м
[Cb calv As op Ci fib]
+24.4 +23.6 95 +33 +33 очень
душно
1008.9 1005.6 +23.9 0.0
ЮЗ 2 5000 м мгла {гроза, дождь} 9/5 450 м
[Cb cap As op Ci fib]
+26.1 +24.7 92 +37 +41 очень
душно
1010.9 1007.4 3
С 3 7000 м {гроза, дождь} 9/4 480 м
[Cb cap As op Ci fib]
+29.5 +24.7 75 +42 +48 опасность
перегрева
1008.4 1004.9 3
штиль 0 6000 м гроза без осадков 10/4 450 м
[Cb cap As op]
+27.7 +25.5 88 +41 +42 опасность
перегрева
1007.2 1003.8
ЮЗ 2 6000 м 10/4 450 м
[Cb cap As op]
+25.2 +24.2 94 +35 +35 очень
душно
1008.0 1004.7 +30.4
штиль 0 6000 м {дождь} 10/5 450 м
[Cb cap As op]
+25.2 +24.2 94 +35 +35 очень
душно
1010.4 1006.9 0.0
ЮЗ 2 6000 м 8/3 500 м
[Sc As trans Ci fib]
+23.9 +23.1 95 +32 +32 очень
душно
1008.8 1005.3 0.0
штиль 0 6000 м 8/3 500 м
[Sc As trans Ci fib]
+23.3 +22.8 97 +32 +32 очень
душно
1007.9 1004.4
штиль 0 6000 м 6/3 480 м
[Cu med, cong As trans Ci fib]
+23.2 +22.4 95 +32 +32 очень
душно
1009.4 1006.0 +22.8 3
С 2 6000 м 6/3 480 м
[Cu hum As trans Ci fib]
+28.9 +23.8 74 +40 +47 очень
душно
1010.7 1007.3
С 3 6000 м 6/4 450 м
[Cb calv As trans Ci fib]
+30.5 +24.8 72 +44 +52 опасность
перегрева
1008.0 1004.6
СВ 2 6000 м 10/5 450 м
[Cb cap As op]
+28.6 +23.6 74 +39 +40 очень
душно
1007.0 1003.5
штиль 0 4000 м мгла 9/4 450 м
[Cb cap As op Ci fib]
+27.7 +25.2 86 +40 +40 очень
душно
1008.4 1005.0 +31.1
ЮЗ 2 5000 м мгла 10/5 450 м
[Cb cap As op]
+24.5 +24.0 97 +34 +34 очень
душно
1011.3 1007.9
ЮЗ 1 6000 м 10/4 450 м
[Cb cap As op]
+23.7 +23.5 99 +32 +32 очень
душно
1009.7 1006.3
Местоположение метеостанции Лхоксёмаве (Индонезия): широта 5.23 долгота 97.20 высота над уровнем моря 87 м.
В архиве по умолчанию представлена погода в Лхоксёмаве за последнюю неделю. Архивные данные за месяц целиком и за предыдущие месяцы, начиная с января 2011 года, Вы можете получить, выбрав интересующий диапазон дат из раскрывающегося списка и нажав кнопку "Найти!".
*Определитесь, кто Вы:
Внимание! Время в таблицах - всемирное. Для получения местного времени необходимо прибавить поправку, которая равна 7 ч.
Смотрите также архив погоды в соседних городах и на ближайших метеорологических станциях:
Партнеры нашего сайта:      
Пояснения к столбцам:
  • Ветер - указаны скорость ветра в м/с - средняя за 10 мин, порывы в срок и между сроками (в фигурных скобках) и направление, откуда дует ветер: С - северный,
  • СВ - северо-восточный, В - восточный, ЮВ - юго-восточный, Ю - южный, ЮЗ - юго-западный, З - западный, СЗ - северо-западный.
  • Видимость - горизонтальная дальность видимости в метрах или километрах. При видимости от 1 до 10 км при отсутствии осадков обычно наблюдается дымка, при ухудшении видимости до 1 км и менее - туман. В сухую погоду видимость может ухудшаться дымом, пылью или мглою.
  • Явления - указаны атмосферные явления, наблюдавшиеся в срок или в последний час перед сроком; фигурными скобками обозначены явления, наблюдавшиеся между сроками (за 1-3 часа до срока); квадратными скобками обозначены град или гололедные отложения с указанием их диаметра в мм.
  • Облачность - указаны через наклонную черту общая и нижняя облачность в баллах и высота нижней границы облаков в метрах; квадратными скобками обозначены формы облаков: Ci - перистые, Cs - перисто-слоистые, Cc - перисто-кучевые, Ac - высококучевые, As - высокослоистые, Sc - слоисто-кучевые, Ns - слоисто-дождевые, Cu - кучевые, Cb - кучево-дождевые. Подробнее классификацию облаков см. в Атласе облаков (PDF).
  • T - Температура воздуха - температура, измеренная на высоте 2 м над землей.
  • Td - Температура точки росы - температура, при понижении до которой содержащийся в воздухе водяной пар достигнет насыщения.
  • f - Относительная влажность воздуха - влажноcть воздуха, измеренная на высоте 2 м над землей.
  • Te - Эффективная температура - температура, которую ощущает одетый по сезону человек в тени. Характеристика душности погоды. При расчете учитывается влияние влажности воздуха и скорости ветра на теплоощущения человека.
  • Tes - Эффективная температура на солнце - температура, которую ощущает человек, с поправкой на солнечный нагрев. Характеристика знойности погоды. Зависит от высоты солнца над горизонтом, облачности и скорости ветра. Ночью, в пасмурную погоду, а также при ветре 12 м/с и более поправка равна нулю.
  • P - Атмосферное давление - приведенное к уровню моря атмосферное давление.
  • Po - Атмосферное давление - измеренное на уровне метеостанции атмосферное давление.
  • Tmin - Минимальная температура - минимум температуры воздуха на высоте 2 м над землей.
  • Tmax - Максимальная температура - максимум температуры воздуха на высоте 2 м над землей.
  • R - Количество осадков - Количество выпавших осадков за период времени, мм. При наведении курсора мыши на число - период времени, за который выпало указанное количество осадков.
  • R24 - Количество осадков - Количество выпавших осадков за 24 часа, мм.
  • S - Снежный покров - Высота снежного покрова, см. При наведении курсора мыши на число - состояние снежного покрова и степень покрытия местности в баллах.